Temp
-3 -3 -3 -3 -4 -4 -4 -5 -6 -7 -6 -5 -5 -4 -5 -4 -4 -4 -4 -4 -3 -3 -3 -2 -2 -1 0 1 2 3 2 1 2 3 3 4 4 4
-4 -4 -4 -4 -4 -5 -5 -6 -6 -6 -7 -6 -5 -5 -5 -5 -5 -5 -5 -5 -4 -4 -4 -3 -3 -2 -2 -1 -1 0 -0 -0 0 1 1 2 3 4
-4 -5 -5 -5 -5 -5 -6 -6 -6 -6 -7 -6 -6 -6 -6 -6 -6 -6 -6 -5 -5 -5 -4 -4 -4 -3 -3 -2 -2 -1 -0 -1 -1 -1 0 0 1 2
-5 -5 -6 -6 -6 -6 -7 -7 -7 -8 -8 -8 -7 -7 -7 -7 -7 -7 -6 -6 -6 -5 -5 -5 -4 -4 -3 -3 -3 -3 -3 -2 -2 -2 -1 -2 -1 1
-6 -6 -6 -7 -7 -8 -8 -9 -9 -9 -9 -9 -9 -9 -8 -8 -8 -7 -7 -6 -6 -6 -6 -5 -5 -4 -4 -3 -4 -4 -4 -3 -3 -3 -3 -1 -3 -2
-6 -6 -7 -8 -9 -9 -10 -10 -10 -10 -10 -10 -10 -10 -9 -9 -9 -8 -8 -7 -7 -6 -6 -6 -5 -5 -5 -5 -4 -4 -4 -4 -4 -3 -4 -4 -4 -4
-7 -7 -8 -9 -10 -10 -11 -11 -11 -11 -11 -11 -10 -10 -10 -10 -9 -9 -9 -8 -7 -7 -7 -6 -6 -5 -5 -5 -5 -4 -4 -4 -4 -4 -4 -4 -4 -4
-8 -8 -9 -9 -10 -11 -11 -11 -12 -12 -11 -11 -11 -11 -10 -10 -10 -10 -9 -9 -9 -8 -8 -7 -7 -6 -6 -5 -5 -5 -5 -4 -4 -4 -4 -4 -3 -3
-9 -9 -9 -10 -11 -11 -11 -11 -11 -11 -11 -11 -11 -10 -10 -10 -10 -10 -10 -10 -9 -9 -9 -8 -8 -7 -7 -6 -6 -5 -5 -5 -4 -4 -4 -4 -4 -4
-9 -9 -10 -11 -11 -12 -12 -12 -11 -11 -11 -11 -11 -11 -10 -10 -10 -10 -10 -10 -9 -9 -9 -9 -8 -7 -7 -7 -7 -6 -5 -5 -4 -4 -4 -4 -4 -4
-9 -10 -11 -12 -12 -12 -11 -12 -11 -11 -11 -11 -10 -10 -11 -11 -11 -11 -10 -10 -9 -9 -8 -9 -8 -7 -7 -6 -6 -6 -6 -6 -5 -4 -4 -4 -4 -4
-10 -11 -12 -12 -12 -12 -12 -12 -12 -12 -11 -11 -10 -10 -10 -10 -10 -11 -10 -10 -10 -10 -8 -9 -8 -8 -7 -6 -6 -6 -6 -6 -6 -6 -6 -5 -5 -5
-11 -12 -12 -13 -13 -13 -13 -12 -12 -12 -12 -11 -11 -10 -10 -10 -9 -9 -10 -10 -10 -9 -9 -9 -9 -8 -8 -7 -7 -7 -7 -7 -7 -7 -6 -6 -6 -6
-12 -12 -13 -14 -14 -13 -13 -13 -13 -12 -12 -12 -11 -11 -10 -10 -9 -9 -9 -9 -9 -8 -8 -8 -8 -8 -8 -8 -8 -8 -8 -7 -7 -7 -7 -7 -6 -6
-12 -12 -13 -13 -13 -13 -13 -13 -13 -13 -12 -12 -12 -11 -11 -10 -10 -9 -9 -8 -8 -8 -8 -8 -8 -8 -8 -8 -8 -8 -8 -8 -7 -7 -6 -6 -6 -6
-11 -12 -13 -13 -13 -13 -13 -13 -13 -13 -13 -13 -12 -12 -11 -10 -10 -9 -9 -8 -8 -8 -8 -8 -8 -7 -8 -8 -8 -8 -8 -8 -7 -7 -7 -7 -6 -6
-11 -12 -12 -12 -13 -12 -13 -13 -13 -13 -13 -13 -12 -12 -11 -11 -10 -10 -9 -9 -9 -8 -8 -8 -8 -7 -7 -8 -8 -8 -8 -8 -8 -8 -7 -7 -7 -7
-12 -12 -12 -12 -13 -13 -13 -13 -13 -13 -13 -13 -13 -12 -12 -11 -11 -10 -10 -10 -9 -9 -9 -8 -8 -8 -8 -8 -8 -8 -8 -8 -8 -7 -7 -7 -6 -7
-12 -12 -12 -12 -12 -13 -13 -13 -13 -13 -13 -14 -13 -13 -12 -12 -11 -11 -11 -10 -10 -10 -9 -9 -9 -8 -8 -8 -8 -8 -8 -8 -8 -7 -7 -7 -7 -7
-12 -12 -12 -12 -13 -13 -13 -13 -13 -13 -13 -13 -13 -13 -13 -12 -12 -12 -12 -11 -11 -11 -10 -10 -10 -9 -9 -9 -10 -9 -9 -9 -8 -8 -8 -8 -7 -7
-12 -12 -12 -12 -12 -13 -13 -13 -13 -13 -13 -14 -14 -13 -13 -13 -13 -13 -13 -13 -12 -12 -11 -11 -10 -10 -10 -10 -9 -9 -9 -9 -9 -9 -8 -8 -8 -8
-12 -12 -12 -12 -12 -13 -13 -13 -13 -13 -13 -13 -14 -14 -14 -14 -13 -13 -13 -13 -13 -12 -12 -11 -11 -10 -10 -10 -10 -9 -9 -9 -9 -9 -9 -9 -9 -9
-11 -12 -12 -12 -12 -13 -13 -13 -13 -13 -13 -13 -13 -13 -13 -13 -14 -14 -13 -13 -13 -13 -12 -11 -11 -10 -10 -10 -10 -9 -9 -10 -10 -10 -10 -10 -10 -10
Height
1499 1498 1495 1493 1490 1487 1485 1482 1480 1475 1469 1467 1467 1467 1466 1465 1464 1462 1459 1458 1456 1453 1451 1448 1445 1445 1445 1446 1447 1448 1456 1455 1456 1459 1467 1472 1475 1479
1494 1493 1490 1487 1485 1484 1481 1479 1476 1474 1464 1462 1459 1458 1458 1457 1456 1455 1453 1452 1450 1449 1446 1444 1443 1441 1441 1441 1443 1445 1447 1446 1453 1456 1461 1467 1471 1474
1490 1487 1486 1483 1481 1479 1476 1473 1469 1467 1460 1452 1452 1451 1449 1448 1448 1448 1447 1445 1444 1443 1441 1440 1439 1438 1437 1437 1438 1440 1443 1444 1446 1448 1455 1463 1466 1469
1485 1483 1480 1477 1474 1470 1467 1463 1460 1458 1454 1446 1444 1443 1441 1441 1441 1440 1440 1439 1437 1437 1436 1434 1434 1433 1433 1433 1433 1435 1436 1440 1443 1443 1445 1453 1461 1463
1480 1477 1473 1470 1466 1462 1459 1455 1452 1450 1447 1443 1438 1436 1435 1435 1434 1433 1433 1432 1431 1430 1430 1429 1429 1428 1428 1429 1430 1431 1433 1435 1437 1441 1443 1446 1453 1459
1475 1471 1467 1463 1459 1455 1451 1448 1445 1442 1440 1437 1433 1430 1429 1428 1428 1427 1426 1426 1424 1424 1423 1423 1423 1424 1424 1424 1426 1428 1430 1431 1435 1437 1439 1443 1448 1453
1469 1465 1461 1457 1453 1450 1446 1442 1438 1435 1433 1430 1427 1425 1423 1422 1422 1421 1419 1419 1417 1416 1415 1415 1415 1417 1419 1420 1422 1424 1427 1429 1432 1434 1437 1440 1445 1445
1462 1458 1454 1449 1445 1441 1438 1435 1432 1428 1426 1423 1421 1419 1417 1416 1415 1414 1414 1412 1410 1411 1409 1409 1409 1409 1411 1414 1417 1419 1421 1425 1428 1430 1434 1437 1438 1440
1456 1451 1446 1442 1438 1433 1430 1427 1425 1423 1420 1418 1414 1413 1411 1410 1408 1407 1407 1406 1405 1406 1405 1402 1404 1404 1406 1407 1410 1412 1416 1419 1422 1424 1428 1430 1433 1437
1451 1446 1440 1435 1432 1428 1426 1423 1420 1417 1414 1411 1408 1406 1404 1403 1402 1401 1400 1399 1399 1399 1400 1397 1399 1399 1401 1401 1402 1405 1408 1411 1415 1418 1421 1424 1427 1431
1446 1441 1436 1432 1429 1427 1423 1418 1415 1411 1408 1405 1402 1399 1397 1396 1395 1395 1393 1393 1392 1393 1395 1393 1393 1394 1394 1394 1396 1398 1400 1402 1405 1409 1413 1416 1419 1423
1442 1438 1434 1430 1427 1424 1419 1414 1410 1407 1403 1399 1396 1393 1391 1389 1388 1387 1387 1388 1388 1388 1389 1389 1389 1390 1389 1390 1392 1393 1393 1394 1396 1400 1404 1407 1411 1414
1438 1433 1430 1426 1423 1420 1415 1411 1408 1403 1399 1396 1393 1390 1387 1385 1383 1381 1380 1381 1382 1382 1384 1386 1386 1387 1388 1388 1389 1389 1389 1389 1389 1392 1397 1401 1404 1408
1435 1430 1426 1423 1419 1415 1411 1408 1404 1400 1397 1393 1390 1387 1385 1383 1381 1379 1377 1376 1377 1377 1379 1381 1382 1383 1384 1385 1386 1387 1386 1386 1386 1389 1393 1396 1399 1402
1433 1428 1423 1420 1416 1412 1409 1405 1402 1398 1395 1391 1388 1386 1383 1381 1379 1377 1375 1374 1373 1374 1376 1377 1378 1380 1381 1382 1383 1384 1384 1384 1385 1387 1390 1393 1395 1397
1430 1426 1421 1418 1414 1411 1407 1404 1400 1397 1394 1390 1388 1385 1382 1380 1378 1376 1374 1373 1372 1373 1374 1375 1376 1377 1378 1379 1380 1381 1382 1382 1384 1385 1387 1388 1390 1392
1428 1424 1420 1416 1413 1409 1406 1402 1399 1396 1392 1390 1387 1384 1382 1380 1378 1376 1375 1374 1373 1373 1374 1374 1374 1375 1376 1377 1378 1378 1379 1380 1381 1381 1382 1383 1385 1386
1426 1422 1419 1415 1412 1408 1405 1401 1398 1395 1392 1389 1387 1385 1383 1381 1379 1377 1376 1375 1374 1374 1374 1373 1373 1374 1375 1376 1376 1376 1377 1378 1378 1377 1377 1378 1379 1381
1425 1421 1418 1414 1411 1408 1405 1402 1398 1395 1392 1390 1388 1385 1383 1381 1380 1378 1376 1375 1374 1374 1373 1373 1373 1373 1373 1374 1374 1374 1375 1376 1376 1376 1375 1375 1374 1375
1423 1420 1417 1414 1411 1408 1405 1401 1399 1396 1393 1390 1388 1386 1384 1382 1380 1378 1376 1375 1374 1373 1372 1372 1372 1372 1372 1372 1372 1372 1372 1373 1373 1373 1373 1372 1371 1371
1421 1418 1415 1413 1410 1407 1404 1402 1399 1396 1393 1390 1388 1385 1383 1381 1380 1378 1376 1375 1373 1371 1371 1370 1370 1370 1371 1371 1371 1370 1371 1371 1371 1370 1370 1369 1369 1368
1418 1416 1413 1411 1409 1406 1404 1401 1399 1396 1393 1391 1388 1386 1383 1381 1379 1377 1375 1373 1372 1370 1369 1368 1368 1369 1369 1369 1369 1370 1370 1370 1370 1370 1369 1369 1368 1367
1415 1413 1411 1409 1407 1405 1403 1400 1398 1395 1393 1390 1387 1385 1383 1381 1379 1377 1375 1373 1371 1369 1368 1368 1368 1368 1368 1368 1368 1369 1369 1369 1369 1369 1369 1368 1368 1367
Wind_Speed
17 19 21 22 24 24 21 20 17 20 32 33 33 31 32 29 27 25 26 24 20 21 21 20 19 21 25 18 22 33 24 25 25 25 24 23 22 22
20 21 22 22 21 19 21 24 25 29 36 37 41 39 34 29 25 22 23 24 22 22 23 22 19 17 20 20 25 25 24 22 21 20 19 19 21 21
18 19 18 20 24 28 30 31 33 31 36 45 41 38 35 29 20 22 24 24 23 22 23 23 21 19 18 23 16 30 39 30 34 27 21 18 20 20
19 21 25 28 31 29 28 28 28 27 29 36 37 34 30 24 20 25 26 24 23 20 21 23 20 20 19 19 21 16 19 19 27 30 35 22 18 20
23 28 31 29 29 28 27 27 26 24 23 26 31 31 29 23 21 23 25 25 22 21 20 21 19 18 16 21 12 14 15 17 17 16 20 30 20 15
29 30 28 27 28 28 27 28 26 25 26 27 29 31 29 26 22 23 24 23 24 22 20 20 23 19 15 15 21 13 13 17 19 19 17 19 13 13
29 27 27 28 27 26 26 26 28 30 28 27 30 28 27 27 24 22 23 22 25 25 25 21 21 26 22 17 17 17 20 17 16 15 14 16 17 18
29 29 29 30 29 26 27 29 28 26 25 26 27 28 29 28 25 21 22 23 26 22 17 14 14 19 27 24 19 16 17 19 21 22 23 24 22 21
28 29 30 28 26 25 23 20 20 21 22 24 26 24 25 22 22 23 23 23 24 20 19 22 18 18 18 24 26 26 24 21 20 20 22 22 22 23
26 26 26 24 21 19 18 21 22 20 20 20 23 26 25 25 25 23 22 23 23 23 18 24 19 16 13 18 22 25 29 30 30 28 26 25 25 25
24 23 21 20 17 17 20 22 25 23 18 19 20 21 21 21 22 24 24 24 24 21 17 20 20 17 17 13 14 18 23 28 32 33 33 32 29 29
25 22 19 18 16 19 22 22 21 21 22 21 20 17 17 18 19 21 23 27 23 19 18 17 15 12 3 7 9 6 9 17 25 29 29 29 29 30
25 24 20 18 19 20 19 18 19 22 20 18 18 15 10 9 8 11 16 22 25 28 23 15 14 12 10 9 9 8 8 10 14 22 25 23 24 28
25 23 21 19 19 18 18 16 16 16 16 15 15 13 12 12 11 10 9 11 12 13 13 13 11 9 8 8 10 5 7 6 8 18 19 17 18 20
23 22 20 19 18 17 16 13 14 15 15 13 13 12 12 13 13 11 8 6 13 13 11 12 14 13 11 12 12 9 8 5 9 14 17 18 18 20
22 20 19 18 16 14 14 13 13 14 15 13 12 13 11 9 8 6 6 5 4 1 2 5 8 10 12 9 9 6 6 3 5 9 15 18 19 22
20 18 17 16 16 15 15 14 14 14 12 10 11 12 9 7 7 6 5 5 5 3 1 1 4 6 3 5 7 7 7 8 7 10 14 15 17 21
19 17 17 16 16 16 17 17 16 16 13 10 11 11 10 9 8 7 7 6 5 4 1 1 1 2 3 5 8 9 9 9 5 8 9 10 12 13
17 15 16 16 15 15 15 16 17 17 15 10 10 11 10 9 8 8 7 6 4 3 2 3 4 3 3 3 6 4 5 6 6 7 8 9 10 9
15 14 14 15 14 14 14 15 15 15 14 11 10 10 9 9 8 8 8 7 7 6 5 4 4 5 4 3 4 6 5 4 4 5 6 7 9 11
15 13 13 13 13 13 13 14 15 15 15 13 11 11 10 8 7 8 8 9 10 9 7 6 6 5 3 4 6 4 2 4 5 5 6 7 5 5
14 13 12 12 12 12 12 13 13 13 13 12 11 11 10 10 9 9 9 9 11 9 8 4 2 2 2 3 4 2 2 4 4 3 5 7 5 3
14 14 12 11 11 11 11 12 12 14 14 13 12 12 11 10 9 10 9 10 10 7 6 2 2 1 0 1 1 3 1 2 3 2 3 5 6 5
Wind_Direction
308 305 299 297 292 293 285 285 291 302 294 300 303 304 307 303 300 296 296 294 293 301 300 305 308 275 252 242 219 221 202 181 202 208 218 218 214 214
302 299 299 298 296 288 283 289 294 293 291 293 297 299 299 292 289 282 283 289 289 283 290 295 304 295 260 243 236 206 181 181 201 206 211 217 215 212
304 300 297 299 296 293 290 287 284 283 283 287 289 292 292 292 279 272 278 284 284 280 280 284 288 298 288 241 227 221 222 207 202 196 208 217 218 218
303 302 305 303 298 297 296 294 292 288 283 285 287 290 291 290 269 269 281 284 283 282 276 278 282 279 285 283 239 230 217 218 216 208 200 196 217 217
307 309 307 305 304 303 302 300 299 295 289 286 287 288 288 287 276 269 277 281 280 282 277 264 267 276 266 279 251 227 234 227 222 208 208 207 192 214
308 307 306 306 304 304 304 302 299 296 294 291 284 283 287 286 281 277 274 276 278 277 277 274 253 245 250 256 274 256 262 232 228 219 216 185 212 236
309 307 306 303 300 297 294 295 293 296 295 289 285 291 293 292 284 281 277 279 277 281 285 278 258 242 239 236 230 236 234 239 241 232 228 236 231 213
311 311 308 305 304 300 295 292 291 292 291 287 285 285 289 290 288 281 278 280 280 282 282 270 261 242 236 236 231 226 220 225 227 226 234 234 239 233
315 314 311 309 307 306 306 307 304 297 289 288 285 283 285 284 285 283 276 272 271 276 275 274 262 255 249 244 241 238 235 231 225 220 223 223 226 230
322 320 317 318 324 321 327 320 317 311 308 299 288 285 282 281 277 276 276 274 268 266 270 278 281 275 250 244 242 242 241 242 240 237 235 230 230 235
329 331 328 321 327 333 318 311 310 314 315 306 301 290 282 279 275 269 263 278 259 265 269 277 276 282 285 258 242 242 244 242 240 239 240 240 241 244
337 335 328 321 326 318 318 317 319 317 314 316 320 306 290 280 271 263 257 250 257 273 281 267 275 276 267 259 228 239 261 250 239 233 233 236 237 239
337 335 331 327 322 320 320 319 317 315 316 314 315 325 341 335 323 285 264 255 255 259 263 253 268 265 267 265 270 280 273 272 240 229 222 228 232 235
336 335 331 327 327 326 325 324 320 321 322 324 322 319 320 321 316 316 292 263 256 254 258 261 261 263 256 275 281 271 275 266 241 209 210 217 225 231
339 338 334 334 332 331 331 327 327 332 335 335 337 333 324 317 317 305 308 277 258 255 256 267 257 256 251 269 275 275 281 238 218 211 221 226 230 233
342 344 342 341 337 340 342 338 335 338 342 340 340 337 332 329 338 330 326 337 67 112 237 242 238 262 258 257 268 258 259 215 152 211 224 228 232 234
342 346 345 349 355 354 357 352 349 345 348 352 354 357 1 6 16 5 354 1 8 4 19 191 268 263 248 255 268 279 278 277 277 247 240 241 239 241
343 347 352 351 352 356 359 2 2 2 1 3 3 4 9 10 5 2 2 4 11 8 278 312 350 122 201 235 246 254 262 260 284 313 282 272 262 249
340 347 350 352 351 353 356 1 1 3 1 354 355 358 1 2 0 0 356 353 345 330 350 328 311 293 272 269 284 262 232 255 280 278 289 284 287 267
336 343 345 348 350 351 353 355 359 358 1 359 350 346 348 350 352 355 352 349 337 329 324 310 306 307 310 308 300 295 286 284 294 298 295 293 292 274
331 334 337 341 345 347 349 352 353 354 355 354 352 349 346 340 338 340 344 348 340 324 318 301 264 274 269 280 311 294 273 296 315 322 330 332 318 301
320 326 328 331 335 339 343 347 350 352 352 352 352 353 351 350 345 345 343 347 351 346 349 354 351 291 270 280 314 235 261 299 308 311 351 3 359 330
314 316 320 322 324 325 330 337 343 349 350 351 352 353 355 358 356 354 355 352 353 2 8 18 25 61 307 346 292 200 303 23 20 338 343 358 8 343